Chadron, NE

10:10 AM MST on February 09, 2016 (GMT -0700)
Chadron Municipal

Weather History for KCDR - April, 2014

Change the Weather History Date:

Saturday, April 19, 2014

  Actual Average Record
Temperature  
Mean Temperature 53 °F 46 °F  
Max Temperature 65 °F 61 °F 84 °F (1961)
Min Temperature 41 °F 31 °F 9 °F (1966)
Degree Days  
Heating Degree Days 12 19  
Month to date heating degree days 398 419  
Since 1 July heating degree days 6770 6576  
Cooling Degree Days 0 0  
Month to date cooling degree days 0 0  
Year to date cooling degree days 0 0  
Growing Degree Days 4 (Base 50)    
Moisture  
Dew Point 35 °F    
Average Humidity 55    
Maximum Humidity 82    
Minimum Humidity 27    
Precipitation  
Precipitation 0.00 in 0.08 in 2.45 in (2000)
Month to date precipitation 0.92 1.10  
Year to date precipitation 2.50 3.30  
Sea Level Pressure  
Sea Level Pressure 29.98 in    
Wind  
Wind Speed 5 mph (ESE)    
Max Wind Speed 22 mph    
Max Gust Speed 29 mph    
Visibility 10 miles    
Events      
T = Trace of Precipitation, MM = Missing Value Source: NWS Daily Summary

Daily Weather History Graph

Daily Weather History Graph

Search for Another Location

Airport or City:

Trip Planner

Search our weather history database for the weather conditions in past years. The results will help you decide how hot, cold, wet, or windy it might be!

Date:

Astronomy

Apr. 19, 2014 Rise Set
Actual Time 6:04 AM MDT 7:39 PM MDT
Civil Twilight 5:34 AM MDT 8:09 PM MDT
Nautical Twilight 4:58 AM MDT 8:45 PM MDT
Astronomical Twilight 4:20 AM MDT 9:24 PM MDT
Moon No Moon Rise 9:21 AM MDT (4/19)
Length of Visible Light 14h 34m
Length of Day
13h 35m
Waning Gibbous, 78% of the Moon is Illuminated
Apr 19
Waning Gibbous
Apr 22
Last Quarter
Apr 29
New
May 6
First Quarter
May 14
Full

Hourly Weather History & Observations

Time (MDT) Temp. Windchill Dew Point Humidity Pressure Visibility Wind Dir Wind Speed Gust Speed Precip Events Conditions
12:53 AM 59.0 °F - 41.0 °F 51% 29.77 in 10.0 mi NW 8.1 mph - N/A   Scattered Clouds
1:53 AM 55.0 °F - 39.9 °F 57% 29.83 in 10.0 mi NNE 20.7 mph 25.3 mph N/A   Partly Cloudy
2:02 AM 53.6 °F - 39.2 °F 58% 29.88 in 10.0 mi NNE 16.1 mph - N/A   Partly Cloudy
3:53 AM 46.9 °F - 36.0 °F 66% 29.92 in 10.0 mi ENE 8.1 mph - N/A   Clear
4:53 AM 44.1 °F - 35.1 °F 71% 29.94 in 10.0 mi Calm Calm - N/A   Clear
5:53 AM 43.0 °F 40.3 °F 36.0 °F 76% 29.98 in 10.0 mi WSW 4.6 mph - N/A   Clear
6:53 AM 43.0 °F 38.2 °F 37.9 °F 82% 30.01 in 10.0 mi SSW 8.1 mph - N/A   Clear
7:53 AM 46.9 °F - 37.9 °F 71% 30.03 in 10.0 mi Calm Calm - N/A   Partly Cloudy
8:53 AM 51.1 °F - 30.0 °F 44% 30.02 in 10.0 mi Calm Calm - N/A   Clear
9:53 AM 52.0 °F - 30.0 °F 43% 30.04 in 10.0 mi Calm Calm - N/A   Clear
10:53 AM 54.0 °F - 33.1 °F 45% 30.05 in 10.0 mi Calm Calm - N/A   Clear
11:53 AM 57.0 °F - 34.0 °F 42% 30.04 in 10.0 mi SE 6.9 mph - N/A   Clear
12:53 PM 60.1 °F - 34.0 °F 38% 30.03 in 10.0 mi ESE 6.9 mph - N/A   Clear
1:53 PM 62.1 °F - 28.9 °F 29% 30.02 in 10.0 mi NE 4.6 mph - N/A   Clear
2:53 PM 63.0 °F - 28.9 °F 28% 30.01 in 10.0 mi SE 3.5 mph - N/A   Clear
3:53 PM 64.9 °F - 32.0 °F 29% 30.00 in 10.0 mi South 8.1 mph - N/A   Clear
4:53 PM 64.0 °F - 32.0 °F 30% 29.99 in 10.0 mi SSE 9.2 mph - N/A   Clear
5:53 PM 63.0 °F - 34.0 °F 34% 29.99 in 10.0 mi ESE 3.5 mph - N/A   Clear
6:53 PM 57.9 °F - 39.0 °F 49% 29.99 in 10.0 mi SE 6.9 mph - N/A   Clear
7:53 PM 53.1 °F - 39.0 °F 59% 30.00 in 10.0 mi ESE 5.8 mph - N/A   Clear
8:53 PM 50.0 °F - 35.1 °F 57% 30.01 in 10.0 mi Calm Calm - N/A   Clear
9:53 PM 46.0 °F 41.9 °F 36.0 °F 68% 30.03 in 10.0 mi SE 8.1 mph - N/A   Clear
10:53 PM 43.0 °F - 35.1 °F 74% 30.03 in 10.0 mi Calm Calm - N/A   Clear
11:53 PM 45.0 °F - 35.1 °F 68% 29.99 in 10.0 mi Calm Calm - N/A   Clear